Regional Weather Roundup
Issued by NWS

Home | Current Version | Previous Version | Graphics & Text | Print | Product List | Glossary On
Versions: 1 2 3 4 5 6 7 8 9 10 11 12 13 14 15 16 17 18 19 20 21 22 23 24 25 26 27 28 29 30 31 32 33 34 35 36 37 38 39 40 41 42 43 44 45 46 47 48 49 50
000
ASUS43 KMPX 011810
RWRMN
WEATHER ROUNDUP FOR MINNESOTA
NATIONAL WEATHER SERVICE TWIN CITIES/CHANHASSEN MN
100 PM CDT SUN MAY 01 2016


NOTE: "FAIR" INDICATES FEW OR NO CLOUDS BELOW 12,000 FEET WITH NO
SIGNIFICANT WEATHER AND/OR OBSTRUCTIONS TO VISIBILITY. N/A MEANS
CURRENT SKY AND/OR WEATHER CONDITIONS ARE NOT AVAILABLE.

MNZ060>063-068>070-011900-
   Twin Cities Metro

CITY           SKY/WX    TMP DP  RH WIND       PRES   REMARKS
TWIN CITIES    PTSUNNY   57  37  47 N10       30.13F
6HR MIN TEMP:  42; 6HR MAX TEMP:  58;

ST PAUL        MOSUNNY   56  38  50 NE8G16    30.14F
CRYSTAL        SUNNY     58  35  42 NE9       30.13F
BLAINE         MOSUNNY   59  37  44 N7G16     30.14F
EDEN PRAIRIE   SUNNY     58  35  42 NE7G21    30.12F
6HR MIN TEMP:  42; 6HR MAX TEMP:  58;

SOUTH ST PAUL  MOSUNNY   57  34  40 NE10G18   30.12F
LAKE ELMO      FAIR      57  37  47 N10G18    30.13F
$$
MNZ001>005-007-008-013>017-022>024-027-028-011900-
   Northwest Minnesota

CITY           SKY/WX    TMP DP  RH WIND       PRES   REMARKS
BEMIDJI        SUNNY     56  30  36 NE7       30.22F
HALLOCK        SUNNY     63  19  19 E7        30.25F
ROSEAU         SUNNY     59  32  36 SE9       30.25F
WARROAD        SUNNY     54  36  50 E7        30.27F
THIEF RVR FALL SUNNY     57  27  30 E8        30.25F
CROOKSTON      SUNNY     61  28  29 NE9       30.25F
FOSSTON        SUNNY     59  32  36 N7G17     30.23F
DETROIT LAKES  SUNNY     55  30  38 NE6       30.23F
MOORHEAD       SUNNY     57  28  33 NE9G16    30.24F
PARK RAPIDS    SUNNY     57  28  33 VRB6      30.20F
MAHNOMEN       FAIR      57  30  35 N9G16     30.22F
$$
MNZ006-009>011-018-025>026-011900-
   North Central Minnesota

CITY           SKY/WX    TMP DP  RH WIND       PRES   REMARKS
BAUDETTE       SUNNY     58  28  32 NW5       30.24F
FLAG ISLAND    SUNNY     46  36  66 S3        30.25F
INTL FALLS     SUNNY     53  30  41 N8        30.24F
6HR MIN TEMP:  33; 6HR MAX TEMP:  54;

WASKISH        SUNNY     57  30  35 NE5       30.23F
BIG FORK       SUNNY     57  28  33 N6        30.22F
LONGVILLE      SUNNY     55  28  35 NE9       30.21F
GRAND RAPIDS   SUNNY     54  27  35 N3G16     30.22F
CRANE LAKE     SUNNY     52  27  37 N3        30.25F
ORR            SUNNY     55  23  28 NW5       30.20F
COOK           SUNNY     54  30  40 S3        30.22F
WALKER         FAIR      53  31  43 E9        30.22F
$$
MNZ012-019>021-037-011900-
   Northeast Minnesota

CITY           SKY/WX    TMP DP  RH WIND       PRES   REMARKS
DULUTH         MOSUNNY   48  36  63 SE13      30.21F
6HR MIN TEMP:  35; 6HR MAX TEMP:  50;

ELY            SUNNY     52  30  43 CALM      30.21F
HIBBING        SUNNY     53  30  41 MISG      30.20F
EVELETH        SUNNY     55  30  38 E5G16     30.21F
DULUTH HARBOR  SUNNY     43  37  81 NE10      30.26F
TWO HARBORS    SUNNY     52  39  62 E9G17     30.21F
SILVER BAY     SUNNY     48  36  61 E9        30.22F
GRAND MARAIS     N/A     44  35  70 E7        30.25F
G MARAIS ARPRT PTSUNNY   52  34  50 SE8       30.21F
$$
MNZ029>031-032-039>041-046>048-054>057-064-011900-
   West Central Minnesota

CITY           SKY/WX    TMP DP  RH WIND       PRES   REMARKS
FERGUS FALLS   SUNNY     57  32  38 N9G17     30.20F
WHEATON        SUNNY     59  34  38 N13G23    30.24F
MORRIS         SUNNY     57  32  38 E15G22    30.20F
ALEXANDRIA     SUNNY     56  31  38 NE12      30.20F
ELBOW LAKE     FAIR      54  32  44 N15       30.21F
WADENA         SUNNY     55  30  38 N10G21    30.20F
GLENWOOD       SUNNY     55  30  38 NE13      30.19F
APPLETON       SUNNY     57  30  35 NE12G22   30.19F
BENSON         SUNNY     57  27  30 E17G23    30.19F
ORTONVILLE     SUNNY     55  30  38 NE15      30.21F
MADISON        SUNNY     55  34  44 N15G25    30.20F
WILLMAR        FAIR      55  36  47 NE16G24   30.19F
$$
MNZ033>034-036-042>043-049>051-058-059-011900-
   Central Minnesota

CITY           SKY/WX    TMP DP  RH WIND       PRES   REMARKS
ST CLOUD       SUNNY     56  33  42 NE13G21   30.17F
6HR MIN TEMP:  37; 6HR MAX TEMP:  56;

SAUK CENTRE    FAIR      54  33  45 NE9G15    30.19F
PAYNESVILLE    SUNNY     55  32  41 NE10G20   30.18F
AITKIN         SUNNY     59  25  27 NE12G18   30.18F
PINE RIVER     SUNNY     57  34  41 NE13G18   30.23F
BRAINERD       SUNNY     55  28  35 VRB5G21   30.20F
STAPLES        SUNNY     55  27  33 NE13      30.20F
LONG PRAIRIE   FAIR      54  32  43 NE9       30.20F
LITTLE FALLS   SUNNY     54  30  40 NE5G16    30.19F
LITCHFIELD     SUNNY     55  36  47 NE13      30.17F
BUFFALO        SUNNY     55  34  43 N13G20    30.17F
MAPLE LAKE     MOSUNNY   56  38  50 N14G20    30.17F
HUTCHINSON     MOSUNNY   56  39  52 NE15G22   30.16F
$$
MNZ037-044-045-052-053-011900-
   East Central Minnesota

CITY           SKY/WX    TMP DP  RH WIND       PRES   REMARKS
PRINCETON        N/A     55  36  47 NE15      30.17F
MORA           MOSUNNY   55  36  47 NE8       30.19F
CAMBRIDGE      SUNNY     57  39  51 NE6G18    30.15F
RUSH CITY      SUNNY     56  37  47 NE9       30.17F
MOOSE LAKE     SUNNY     54  34  47 E10G17    30.18F
HINCKLEY       FAIR      54  37  54 NE10G17   30.18F
CLOQUET        SUNNY     48  36  61 E8        30.21F
MCGREGOR       SUNNY     55  34  44 NE9G16    30.20F
$$
MNZ071>073-080-081-089-090-097-098-011900-
   Southwest Minnesota

CITY           SKY/WX    TMP DP  RH WIND       PRES   REMARKS
MONTEVIDEO     SUNNY     57  34  41 E15G22    30.21S
GRANITE FALLS  SUNNY     57  37  46 N14G22    30.20S
CANBY          SUNNY     58  37  46 NE10G18   30.20F
MARSHALL       MOSUNNY   55  33  43 NE17      30.18F
REDWOOD FALLS  SUNNY     57  31  37 NE8       30.16F
OLIVIA         SUNNY     54  32  43 NE14G23   30.16F
PIPESTONE      MOSUNNY   52  39  62 NE14G22   30.17S
WINDOM         SUNNY     54  41  62 N15       30.14F
WORTHINGTON    CLOUDY    49  41  74 N16G23    30.15F
JACKSON        CLOUDY    52  39  62 NE15G22   30.13F
TRACY          CLOUDY    56  39  53 NE13G21   30.17S
SLAYTON        CLOUDY    49  39  66 N14       30.17F
$$
MNZ065>067-074>077-082>085-091>093-011900-
   South Central Minnesota

CITY           SKY/WX    TMP DP  RH WIND       PRES   REMARKS
MANKATO        MOSUNNY   55  37  50 NE12      30.13S
NEW ULM        MOSUNNY   54  37  54 NE8G16    30.14F
ST JAMES       MOSUNNY   50  37  62 N9G16     30.14F
FAIRMONT       CLOUDY    52  39  62 NE15      30.12F
GLENCOE        MOSUNNY   56  39  53 NE6       30.15S
FARIBAULT      SUNNY     57  39  51 N10G23    30.11F
OWATONNA       CLOUDY    54  39  58 NE5       30.11F
WASECA         MOSUNNY   55  43  62 NE10G17   30.12F
ALBERT LEA     CLOUDY    52  41  66 VRB10     30.10F
$$
MNZ078>079-086>088-094>096-011900-
   Southeast Minnesota

CITY           SKY/WX    TMP DP  RH WIND       PRES   REMARKS
ROCHESTER      PTSUNNY   54  39  57 NE16G23   30.09F
6HR MIN TEMP:  43; 6HR MAX TEMP:  54; 6HR PCP: TRACE;

RED WING       SUNNY     61  30  31 NE6G12    30.09F
STANTON        SUNNY     58  36  44 NE12G21   30.10S
DODGE CENTER   CLOUDY    57  37  47 NE15      30.09F
WINONA         MOSUNNY   57  37  47 E8G16     30.08F
AUSTIN         CLOUDY    50  39  66 N9        30.08F
PRESTON        CLOUDY    50  40  67 NE9G18    30.08S
$$
ABBREVIATIONS USED IN REMARKS
   TC - TEMPERATURES IN CELSIUS
  WCI - WIND CHILL INDEX
   HX - HEAT INDEX
  VSB - VISIBILITY
$$




USA.gov is the U.S. government's official web portal to all federal, state and local government web resources and services.